Location: Cueva de Ratón
(10.1013°N, 67.6606°W)
Time: 06:00:17
(UTC+00:00)

Cosmos 1110 Rocket - Pass Details

Date: 02 December 2023
Orbit: 751 x 778 km, 74.0° (Epoch: 26 February)

Event Time Altitude Azimuth Distance (km) Brightness Sun altitude
Rises 23:45:38 0° 192° (SSW) 3,201 7.6 -23.5°
Reaches altitude 10° 23:47:59 10° 192° (SSW) 2,279 6.8 -24.0°
Maximum altitude 23:53:09 88° 107° (ESE) 764 3.8 -25.2°
Enters shadow 23:53:50 69° 16° (NNE) 813 3.9 -25.4°
